User: anonymous   Login
Location: Cactus School
(34.5700°N, 118.0931°W)
Time: 10:35:40
(UTC-07:00)
Language:

Courier 1B Rocket - Orbit

View from above orbital plane
View from above orbital plane
View from above satellite
View from above satellite

Ground track
Ground track

The orbit data is extracted from the following two-line orbital elements,

1 00059U 60013B   24113.65304071  .00000245  00000-0  20414-3 0  9996
2 00059  28.2480 199.6605 0188888 200.9927 158.2777 13.53067040136697
Epoch (UTC): 22 April 2024 15:40:22
Eccentricity: 0.0188888
inclination: 28.2480°
perigee height: 920 km
apogee height: 1201 km
right ascension of ascending node: 199.6605°
argument of perigee: 200.9927°
revolutions per day: 13.53067040
mean anomaly at epoch: 158.2777°
orbit number at epoch: 13669

The dashed part of the orbit path shows where the satellite is in the earth's shadow,  

DLR